Powrót do katalogu

COSMOS 2251 DEB

AktywnyVLEO
NORAD 39546·DEBRIS·🇷🇺 Russia

Wystrzelony Jun 16, 1993 z Plesetsk Cosmodrome

Loading…

Następne Przeloty (najbliższe 24 godziny)

TLE

ŚwieżeSource: Space-Track

Epoka: Sep 14, 2026, 20:17 UTC

1 39546U 93036BUC 26257.84548320  .00009457  00000-0  77369-3 0  9994
2 39546  73.9954 297.8323 0038583  22.7901 337.4986 14.98851076685657

Śledź COSMOS 2251 DEB w czasie rzeczywistym z AllMySat

Download on the App Store